カタログに戻る

COSMOS 1275 DEB

運用中PO
NORAD 14441·DEBRIS·🇷🇺 Russia

打ち上げ Jun 4, 1981 から Plesetsk Cosmodrome

Loading…

次のパス (今後24時間)

TLE

最新Source: Space-Track

元期: Sep 14, 2026, 14:32 UTC

1 14441U 81053JH  26257.60605905  .00001809  00000-0  95626-3 0  9993
2 14441  83.1133 204.9830 0046360  58.5558 302.0139 14.12739115285698

AllMySatでCOSMOS 1275 DEBをリアルタイム追跡

Download on the App Store